Location: Pedholt
(56.0260°N, 10.2097°E)
Time: 20:12:19
(UTC+00:00)

SR - Pass Details

Date: 29 July 2021
Orbit: 581 x 873 km, 66.7° (Epoch: 27 September)

Event Time Altitude Azimuth Distance (km) Brightness Sun altitude
Rises 06:16:16 0° 200° (SSW) 3,432 ? 22.4°
Reaches altitude 10° 06:18:51 10° 195° (SSW) 2,478 ? 22.8°
Maximum altitude 06:24:20 48° 123° (ESE) 1,067 ? 23.6°
Drops below altitude 10° 06:29:31 10° 50° (NE) 2,341 ? 24.3°
Sets 06:31:54 0° 45° (NE) 3,226 ? 24.6°
